Weather History for El Paso, TX

Change the Weather History Date:

Friday, May 24, 2013

  Actual Average Record
Temperature  
Mean Temperature 79 °F 76 °F  
Max Temperature 94 °F 90 °F 102 °F (2000)
Min Temperature 63 °F 62 °F 36 °F (1939)
Degree Days  
Heating Degree Days 0 0  
Month to date heating degree days 21 6  
Since 1 July heating degree days 2219 2471  
Cooling Degree Days 14 11  
Month to date cooling degree days 218 197  
Year to date cooling degree days 385 289  
Growing Degree Days 28 (Base 50)    
Moisture  
Dew Point 43 °F    
Average Humidity 37    
Maximum Humidity 60    
Minimum Humidity 13    
Precipitation  
Precipitation 0.00 in 0.02 in 0.25 in (1994)
Month to date precipitation 0.18 0.35  
Year to date precipitation 0.89 1.70  
Snow  
Snow 0.00 in - - ()
Month to date snowfall 0.0  
Since 1 July snowfall 3.1  
Snow Depth 0.00 in    
Sea Level Pressure  
Sea Level Pressure 29.79 in    
Wind  
Wind Speed 5 mph (SSE)    
Max Wind Speed 25 mph    
Max Gust Speed 31 mph    
Visibility 10 miles    
Events      
T = Trace of Precipitation, MM = Missing Value Source: NWS Daily Summary

Daily Weather History Graph

Daily Weather History Graph

Search for Another Location

Airport:

Trip Planner

Search our weather history database for the weather conditions in past years. The results will help you decide how hot, cold, wet, or windy it might be!

Date:

Astronomy

May. 24, 2013 Rise Set
Actual Time 6:03 AM MDT 8:01 PM MDT
Civil Twilight 5:36 AM MDT 8:29 PM MDT
Nautical Twilight 5:02 AM MDT 9:02 PM MDT
Astronomical Twilight 4:27 AM MDT 9:37 PM MDT
Moon 7:48 PM MDT (5/24) 5:34 AM MDT (5/24)
Length of Visible Light 14h 53m
Length of Day
13h 58m
Full, 100% of the Moon is Illuminated
May 24
Full
May 24
Full
May 31
Last Quarter
Jun 8
New
Jun 16
First Quarter

Hourly Weather History & Observations

Time (MDT) Temp. Dew Point Humidity Pressure Visibility Wind Dir Wind Speed Gust Speed Precip Events Conditions
12:51 AM 71.1 °F 48.9 °F 45% 29.79 in 10.0 mi SSE 10.4 mph 19.6 mph N/A   Scattered Clouds
1:51 AM 70.0 °F 48.9 °F 47% 29.79 in 10.0 mi SSE 9.2 mph - N/A   Scattered Clouds
2:51 AM 68.0 °F 50.0 °F 52% 29.79 in 10.0 mi South 4.6 mph - N/A   Clear
3:51 AM 66.9 °F 48.9 °F 52% 29.79 in 10.0 mi South 4.6 mph - N/A   Scattered Clouds
4:51 AM 63.0 °F 48.9 °F 60% 29.81 in 10.0 mi East 4.6 mph - N/A   Scattered Clouds
5:51 AM 64.9 °F 48.9 °F 56% 29.82 in 10.0 mi Calm Calm - N/A   Scattered Clouds
6:51 AM 66.9 °F 48.9 °F 52% 29.85 in 10.0 mi West 4.6 mph - N/A   Scattered Clouds
7:51 AM 70.0 °F 48.0 °F 46% 29.87 in 10.0 mi Calm Calm - N/A   Partly Cloudy
8:51 AM 73.0 °F 48.9 °F 42% 29.88 in 10.0 mi Variable 5.8 mph - N/A   Partly Cloudy
9:51 AM 77.0 °F 48.0 °F 36% 29.88 in 10.0 mi South 8.1 mph - N/A   Partly Cloudy
10:51 AM 79.0 °F 46.0 °F 31% 29.88 in 10.0 mi Variable 4.6 mph - N/A   Partly Cloudy
11:51 AM 84.0 °F 37.9 °F 19% 29.86 in 10.0 mi East 3.5 mph - N/A   Partly Cloudy
12:51 PM 84.9 °F 32.0 °F 15% 29.83 in 10.0 mi Calm Calm - N/A   Scattered Clouds
1:51 PM 88.0 °F 32.0 °F 14% 29.80 in 10.0 mi Variable 5.8 mph - N/A   Scattered Clouds
2:51 PM 90.0 °F 35.1 °F 14% 29.77 in 10.0 mi SSE 6.9 mph - N/A   Partly Cloudy
3:51 PM 91.0 °F 34.0 °F 13% 29.75 in 10.0 mi West 4.6 mph - N/A   Partly Cloudy
4:51 PM 91.9 °F 35.1 °F 13% 29.73 in 10.0 mi Calm Calm - N/A   Partly Cloudy
5:51 PM 91.9 °F 37.0 °F 15% 29.70 in 10.0 mi Calm Calm - N/A   Partly Cloudy
6:51 PM 91.9 °F 36.0 °F 14% 29.69 in 10.0 mi SE 5.8 mph - N/A   Scattered Clouds
7:51 PM 87.1 °F 44.1 °F 22% 29.72 in 10.0 mi SE 15.0 mph - N/A   Scattered Clouds
8:51 PM 82.9 °F 43.0 °F 24% 29.77 in 4.0 mi South 15.0 mph 28.8 mph N/A   Widespread Dust
9:51 PM 82.9 °F 37.9 °F 20% 29.76 in 10.0 mi South 8.1 mph - N/A   Scattered Clouds
10:51 PM 78.1 °F 41.0 °F 27% 29.77 in 10.0 mi East 3.5 mph - N/A   Scattered Clouds
11:51 PM 77.0 °F 44.1 °F 31% 29.76 in 10.0 mi North 3.5 mph - N/A   Scattered Clouds